Dewpoint
52 53 53 53 52 52 52 52 53 53 54 54 54 54 54 54 51 42 45 50 49 50 49 36 33 33 33 30 30 29 15 7 10 14 15 21 20 21 22 20 24 29 37 39 38
52 53 52 52 52 52 51 52 53 54 54 54 54 54 54 54 46 39 49 50 49 49 39 33 29 31 26 30 29 18 11 6 19 17 17 20 21 20 20 20 21 27 35 38 37
52 52 52 52 52 51 51 51 53 54 54 54 54 54 53 53 37 40 49 49 48 47 44 40 35 30 24 30 28 25 12 21 22 27 26 21 21 23 19 19 20 23 36 36 36
52 52 53 52 51 51 50 50 52 53 54 55 55 53 53 47 12 41 48 47 47 44 39 35 29 23 23 22 29 21 24 25 26 28 24 22 24 22 22 19 22 26 37 36 35
52 52 52 51 50 49 49 50 53 53 54 55 54 53 46 23 36 43 45 42 41 42 38 34 26 24 17 25 27 24 23 27 28 27 27 27 24 22 23 24 24 35 35 35 30
51 52 51 50 49 49 49 50 53 53 54 54 53 50 33 13 43 42 41 39 38 39 38 37 33 34 27 25 25 27 27 26 28 25 25 24 23 25 22 25 27 33 32 30 28
51 50 50 49 49 48 50 52 53 53 53 51 53 45 33 32 42 40 40 39 40 40 36 41 40 34 30 28 32 29 24 24 24 26 21 24 16 17 21 24 27 28 27 27 29
50 50 49 49 48 49 51 52 52 52 50 52 52 39 30 41 44 36 39 36 39 41 41 41 40 35 32 29 23 21 20 12 19 26 24 19 1 16 22 24 24 24 25 27 29
50 49 49 49 49 50 52 52 50 48 50 49 40 32 27 35 32 37 40 37 38 38 41 38 35 31 27 21 20 16 9 8 10 25 23 19 8 17 22 24 23 23 23 25 29
50 49 49 49 49 51 51 47 46 36 35 44 36 25 25 26 35 37 40 39 36 36 33 32 29 22 24 19 11 10 6 10 9 20 23 20 16 16 21 22 23 22 22 26 29
50 50 49 49 49 50 45 36 32 34 34 28 30 30 29 34 37 34 40 36 33 28 18 29 19 16 11 19 15 15 12 10 12 23 23 20 20 19 18 23 21 23 22 25 28
50 49 48 48 48 48 45 39 37 39 34 35 36 37 36 37 29 34 37 26 23 16 28 23 16 20 21 20 20 19 15 14 17 22 21 18 18 18 19 18 21 22 22 24 29
50 48 48 47 47 45 44 45 48 43 35 31 32 32 32 35 32 34 35 32 22 17 22 13 18 26 26 25 21 18 13 11 11 20 22 18 9 13 18 19 21 23 23 24 29
50 48 47 44 35 44 42 46 47 43 31 28 27 31 36 35 27 39 38 31 28 17 24 19 23 26 24 22 23 20 21 20 18 18 14 16 4 7 9 17 18 21 23 21 28
51 48 47 43 37 36 42 46 45 39 30 27 27 37 38 31 31 34 39 32 20 23 21 16 24 25 24 21 23 22 27 23 21 22 20 16 16 2 10 7 14 19 20 23 26
51 48 46 43 43 44 46 46 38 30 30 20 28 30 29 32 31 36 36 34 32 26 26 22 28 28 24 28 28 26 21 20 21 22 18 13 10 2 3 6 15 21 21 23 24
52 49 44 43 34 46 45 33 36 31 28 25 21 29 26 22 27 32 29 28 20 14 16 20 21 26 29 25 27 23 19 18 17 17 8 12 12 6 10 9 13 16 22 26 25
53 50 47 44 46 45 38 37 32 35 30 21 23 26 22 20 22 30 28 23 28 20 16 15 14 23 29 24 20 23 19 17 8 8 8 15 7 3 15 19 21 22 25 28 30
51 48 46 47 47 45 39 33 34 34 29 20 25 24 26 21 20 27 27 22 22 24 13 16 14 26 29 29 24 23 20 19 17 15 14 6 11 13 19 20 21 24 28 29 31
45 44 43 48 48 42 37 36 35 31 22 27 32 31 27 21 20 22 20 24 26 28 23 19 13 25 29 30 29 25 22 20 20 14 10 9 7 7 15 18 22 24 28 29 28
44 42 46 48 45 37 33 34 33 32 23 30 33 32 27 22 22 21 19 22 28 28 26 23 20 21 29 26 23 24 21 21 21 18 15 6 5 15 18 20 21 23 27 27 26
43 39 47 46 35 34 32 33 32 27 29 29 32 30 27 23 26 24 21 19 28 28 26 26 23 17 17 25 27 27 23 20 15 14 18 16 12 17 21 22 23 23 26 27 27
40 38 47 43 32 30 33 33 30 32 31 30 30 33 31 29 28 29 25 29 32 29 27 27 23 18 18 21 24 24 24 24 21 19 17 14 9 21 21 22 24 24 26 27 27
38 33 37 40 37 34 32 32 32 34 33 35 35 34 33 31 30 28 27 31 33 32 33 30 26 19 14 17 22 21 22 23 22 19 16 16 14 17 19 21 23 24 26 26 27
39 35 35 30 32 33 34 34 31 31 33 34 33 33 31 30 30 30 29 29 33 33 33 31 27 25 23 21 23 22 21 21 21 22 19 18 18 20 21 22 22 24 26 25 26
37 36 37 35 35 33 33 31 30 32 32 31 31 32 33 30 28 28 28 30 28 33 32 33 28 28 26 26 27 26 24 24 23 22 21 21 21 23 23 23 23 23 26 25 25
41 40 37 35 33 32 31 31 32 33 34 32 32 30 31 33 32 33 34 34 34 32 31 30 29 26 21 24 25 21 22 23 23 23 22 21 20 19 21 23 25 24 26 25 24
Wind_Speed
16 17 17 17 17 18 18 18 18 18 16 18 18 17 15 16 10 4 7 8 11 15 12 3 2 3 1 3 2 1 3 5 3 2 3 0 4 2 0 4 2 1 2 4 16
16 17 17 18 19 19 19 19 19 19 19 19 18 16 15 12 2 10 5 11 12 12 6 4 1 2 3 2 1 2 2 2 2 3 4 4 4 4 5 6 4 4 2 11 14
16 16 16 17 17 18 18 18 19 20 20 19 16 15 14 6 2 4 12 14 12 7 2 2 1 2 2 1 1 2 2 1 1 3 5 4 4 3 5 7 6 8 12 15 14
15 16 17 17 18 19 19 18 18 19 20 15 13 13 10 1 4 4 16 15 11 3 1 2 1 3 3 3 2 3 3 2 1 1 2 3 1 4 7 2 2 3 14 15 13
15 16 17 18 18 18 19 19 19 20 16 12 10 11 2 3 3 7 14 10 5 3 4 2 1 2 3 4 3 5 2 2 2 3 4 3 6 6 7 5 2 12 14 14 12
16 17 18 19 21 23 22 20 18 18 11 8 7 7 1 1 2 7 11 3 8 5 4 3 1 0 3 2 4 0 3 4 3 3 2 4 5 3 1 3 9 14 13 13 12
16 17 19 21 23 24 24 22 20 13 5 4 6 3 3 3 2 7 10 3 6 4 1 2 1 2 2 3 0 1 5 5 5 3 2 2 9 9 2 7 14 14 12 11 10
15 17 20 21 23 26 27 25 19 6 3 4 3 1 3 2 3 8 10 1 5 2 2 1 2 2 0 2 1 2 3 5 2 4 2 2 6 1 4 11 15 14 12 10 11
13 16 18 21 25 26 28 23 6 5 3 3 0 2 3 1 3 6 6 6 6 1 1 0 1 1 2 3 1 2 5 5 2 3 2 5 4 1 3 10 15 14 11 12 12
13 14 17 20 22 27 29 10 3 2 1 1 1 1 3 3 4 5 4 5 2 1 0 1 1 2 2 6 4 3 5 4 5 1 4 6 15 8 5 11 16 15 13 12 15
9 12 15 18 21 22 15 4 8 1 9 3 8 5 5 7 2 3 4 4 2 1 2 2 3 6 3 5 2 2 3 6 3 0 4 8 14 13 8 10 16 18 15 15 15
8 11 13 16 19 16 6 7 3 1 10 2 3 4 3 4 3 5 5 2 1 1 2 3 7 1 0 1 5 5 8 11 6 1 4 7 15 14 12 17 18 21 18 16 16
6 7 12 15 10 5 9 5 1 5 5 4 2 1 0 2 2 5 6 1 2 3 2 7 1 3 2 4 6 8 11 7 6 1 4 10 15 15 10 15 13 18 18 16 19
6 5 9 18 1 2 3 1 3 3 5 2 1 1 2 1 1 1 2 2 1 2 2 6 1 3 5 6 5 5 3 5 5 4 5 1 9 6 8 13 16 19 20 19 19
8 3 3 8 1 2 1 1 4 2 9 0 1 1 1 2 1 2 1 1 3 2 2 2 2 4 6 5 6 1 1 2 2 4 2 7 6 7 3 11 19 20 21 20 21
12 7 4 2 1 1 0 1 2 1 9 2 0 1 2 2 2 1 1 1 1 2 4 6 1 3 2 2 2 8 4 3 2 3 6 10 12 8 10 7 0 0 13 17 20
17 13 7 4 2 2 1 2 2 6 1 2 2 1 2 4 3 4 4 5 5 4 5 3 6 2 3 4 3 6 6 3 5 6 8 2 7 12 9 6 7 8 6 12 19
21 16 6 3 5 3 3 4 10 6 8 1 1 3 6 2 5 4 3 7 9 6 3 5 6 9 7 6 4 11 6 5 6 4 0 2 7 1 2 9 8 7 5 10 18
21 6 6 7 7 6 6 4 6 6 4 3 1 8 8 4 5 3 8 7 6 16 10 7 5 3 4 2 3 5 10 1 0 0 5 6 5 8 2 6 6 2 7 12 17
10 8 4 14 10 6 4 10 9 7 4 1 7 7 10 5 6 6 5 4 3 10 3 2 6 3 3 2 1 4 7 4 5 5 7 5 5 6 7 11 6 2 9 12 13
7 4 6 16 9 2 7 9 8 10 7 8 8 11 11 7 8 4 5 2 1 3 2 3 4 2 3 10 11 5 6 4 2 3 5 4 3 4 6 10 6 4 11 14 14
8 6 17 19 7 4 7 7 4 4 2 4 5 7 7 2 3 5 8 5 1 6 5 5 3 8 7 2 2 4 7 14 10 6 4 2 5 5 5 7 1 6 12 12 13
7 4 6 2 10 10 4 5 3 5 7 8 10 11 9 6 6 12 8 1 3 7 5 6 5 5 4 2 2 5 7 7 4 1 10 6 4 8 4 9 5 6 10 10 10
7 7 2 6 1 5 9 7 8 9 8 6 5 7 8 11 13 6 6 2 1 2 2 5 5 10 13 1 2 5 9 11 15 15 18 21 18 9 11 6 5 5 8 9 10
6 8 8 11 11 14 10 6 8 8 9 12 7 17 11 8 13 16 16 7 3 3 1 5 10 13 15 10 5 11 15 14 18 23 20 20 20 15 9 7 7 5 12 13 11
9 7 4 4 4 23 18 11 18 10 12 10 15 14 20 17 17 5 13 12 13 7 9 8 4 8 9 13 14 21 21 19 23 26 25 25 25 17 16 14 12 11 16 18 15
3 1 5 8 9 14 12 18 16 14 13 12 18 17 18 20 12 3 1 1 3 6 13 5 9 9 12 5 6 15 23 28 29 22 17 27 16 7 8 8 8 9 14 16 16
Wind_Direction
10 6 4 2 1 360 358 356 350 347 345 341 340 343 345 342 332 62 46 339 332 332 327 305 92 25 75 78 55 182 251 292 297 282 18 118 228 151 330 160 192 194 171 116 140
8 6 2 0 360 357 354 351 347 343 341 339 339 341 340 341 54 63 357 340 337 344 327 15 77 30 98 77 46 229 245 316 330 314 299 310 249 190 198 181 192 198 138 148 148
3 3 0 359 356 354 352 349 344 341 340 338 339 341 339 319 147 27 347 341 335 341 302 321 92 93 133 133 176 179 253 94 295 283 287 272 237 204 224 216 212 214 169 160 157
359 357 357 355 352 350 347 344 343 342 338 340 340 338 337 285 347 355 340 339 339 345 321 308 125 143 153 175 173 258 241 239 292 299 278 263 269 231 235 269 354 225 167 158 160
358 356 355 352 348 346 344 344 343 342 341 342 346 339 323 68 49 339 336 341 337 3 47 354 217 175 194 163 175 235 268 232 260 259 260 280 254 275 250 230 200 145 161 164 155
357 358 354 350 345 342 340 342 340 338 343 356 353 337 352 78 308 344 346 357 10 10 40 17 94 279 122 173 212 149 273 267 253 232 240 259 258 270 203 183 163 161 165 165 160
356 354 353 349 345 339 336 337 333 331 346 5 1 17 42 99 337 346 6 10 351 349 38 39 3 253 152 163 31 247 284 255 228 222 221 280 245 238 229 173 170 175 168 168 160
354 353 350 348 343 337 332 334 333 328 338 348 358 317 76 12 336 3 353 0 12 8 359 23 329 103 290 134 106 235 260 258 133 188 151 219 274 154 210 181 179 182 175 177 165
351 350 348 346 341 336 329 334 350 342 309 323 235 334 105 0 22 344 356 337 318 353 47 43 11 57 165 188 231 222 255 241 249 207 163 221 278 48 198 214 189 188 195 179 163
344 347 346 346 342 336 329 336 339 67 328 153 100 287 49 338 314 333 341 336 354 350 180 21 49 225 181 199 238 209 233 230 259 163 226 230 258 255 229 214 221 201 192 197 179
335 341 346 343 344 340 345 5 355 346 27 283 305 285 340 319 259 23 2 341 356 5 276 19 238 243 268 241 253 176 230 259 252 180 264 248 267 263 228 219 218 220 209 195 191
321 334 341 342 344 347 25 67 73 294 312 34 270 281 272 320 329 17 351 102 59 274 313 268 252 121 172 218 225 229 255 257 258 205 257 274 279 274 227 226 217 208 213 201 178
288 327 340 337 335 32 61 78 198 173 291 310 256 252 66 332 340 341 359 2 98 175 241 255 356 333 230 200 218 233 240 248 262 243 234 296 274 243 220 221 215 209 206 203 192
261 314 345 331 69 345 59 147 180 219 314 262 201 144 161 159 237 298 57 7 255 267 212 260 174 236 243 254 217 260 239 253 243 228 257 294 281 228 206 223 220 210 205 196 193
231 240 16 27 323 21 60 238 159 193 315 32 160 97 238 244 315 167 48 146 233 245 221 260 218 212 228 249 208 257 135 207 243 203 302 216 259 245 201 232 228 217 213 206 193
210 195 144 82 90 135 300 139 257 35 251 289 228 270 267 204 216 116 156 80 63 230 229 256 246 232 248 130 246 148 119 101 102 195 242 225 225 256 228 225 151 71 226 210 194
198 178 172 152 166 165 46 348 312 199 357 251 248 207 249 262 239 203 196 202 223 271 237 226 216 198 190 194 131 202 181 251 237 212 245 96 219 259 273 293 304 295 256 206 191
186 148 157 135 129 71 55 81 237 205 252 193 218 217 246 226 217 199 243 253 222 207 243 248 261 185 180 224 224 195 217 225 271 251 340 137 233 274 23 308 300 286 242 181 176
130 111 154 173 132 96 125 198 227 214 251 243 279 275 259 237 239 225 227 243 227 197 210 200 243 158 195 189 204 172 215 13 284 321 273 233 249 271 1 10 357 343 163 165 162
121 142 209 154 133 119 160 235 224 219 160 22 228 246 270 253 212 211 222 176 234 212 282 231 267 186 146 169 156 225 147 169 196 234 237 220 258 225 7 350 352 184 171 155 145
113 169 145 146 138 121 216 218 227 244 191 207 222 253 251 276 235 245 291 235 225 172 225 181 245 130 164 210 210 172 210 220 262 229 259 269 169 111 13 353 329 194 176 163 156
140 210 153 155 149 201 196 202 211 234 172 208 210 241 243 208 263 252 258 249 61 159 197 202 255 248 239 95 327 262 246 217 233 219 233 282 248 133 9 348 307 174 174 171 164
141 107 166 162 198 204 214 235 242 193 206 191 212 211 210 211 228 230 256 206 232 187 204 183 213 259 240 171 171 225 210 225 234 227 222 234 225 160 49 42 53 162 171 169 162
141 161 191 214 301 176 196 226 212 212 226 176 197 199 192 210 216 239 233 221 264 205 154 170 224 231 244 258 133 206 213 218 225 243 247 235 257 233 275 354 55 159 179 181 174
179 209 175 201 222 213 190 204 191 205 215 203 215 215 195 231 221 227 233 237 226 195 94 181 236 230 232 218 245 265 252 232 223 239 246 258 258 257 265 305 327 220 188 185 182
183 176 183 203 190 204 203 214 208 208 180 203 221 210 217 228 226 228 227 216 224 189 198 194 266 221 239 248 229 250 247 245 243 245 250 257 262 270 288 289 271 243 198 193 184
158 118 164 197 172 182 209 213 225 214 221 218 212 219 210 218 234 248 233 111 280 222 196 214 219 198 268 249 257 257 234 236 241 244 259 255 277 329 287 294 294 275 219 199 174